Tracking 22438 objects as of 25-Feb-2021
HD Live streaming from Space Station
objects crossing your sky now

FREGAT DEB

Track FREGAT DEB now!
10-day predictions


NORAD ID: 45948
Int'l Code: 2011-037FD
Perigee: 1,126.3 km
Apogee: 4,373.5 km
Inclination: 51.4 °
Period: 144.5 minutes
Semi major axis: 9120 km
RCS: Unknown
Launch date: July 18, 2011
Source: Commonwealth of Independent States (former USSR) (CIS)
Launch site: TYURATAM MISSILE AND SPACE COMPLEX (TTMTR)

Note: This is SATELLITE DEBRIS
aabbcc
Your satellite tracking list
Your tracking list is empty




NASA's NSSDC Master Catalog

Two Line Element Set (TLE):
1 45948U 11037FD  21053.93148735 -.00002194  00000-0 -25169-1 0  9995
2 45948  51.4165 259.3623 1780106  23.7826 343.5812  9.96654544 21365
Source of the keplerian elements: AFSPC